VKG481 LGRP-ESSV

Flight info

Callsign VKG481
Flight time N/A
Altitude 34000
Route BANRO UG80 IMR UN127 LMO DCT EVIVI DCT SODGO DCT DEGET DCT KEKED DCT LENOV DCT LOGDA DCT PENOR/N0452F350 DCT VSB
Aircraft A321/M-SDE3FGHIRWY/LB1

Departure

Time N/A
Airport Rhodes International Airport "Diagoras" (LGRP)

Arrival

Time 2026-04-29 13:40
Airport Visby Airport (ESSV)
Time Latitude Longitude Altitude Speed Heading
2026-04-29 13:12 56.44885 17.60916 23163 ft 304 kts 19°
2026-04-29 13:12 56.46898 17.62054 22818 ft 303 kts 19°
2026-04-29 13:13 56.48909 17.63194 22474 ft 303 kts 19°
2026-04-29 13:13 56.50917 17.64334 22130 ft 302 kts 19°
2026-04-29 13:13 56.52922 17.65472 21799 ft 302 kts 19°
2026-04-29 13:13 56.54924 17.66613 21466 ft 301 kts 19°
2026-04-29 13:14 56.56922 17.67751 21131 ft 301 kts 19°
2026-04-29 13:14 56.58919 17.68889 20785 ft 300 kts 19°
2026-04-29 13:14 56.60910 17.70021 20443 ft 300 kts 19°
2026-04-29 13:14 56.62875 17.71136 20103 ft 300 kts 19°
2026-04-29 13:15 56.64864 17.72271 19743 ft 299 kts 19°
2026-04-29 13:15 56.66847 17.73408 19391 ft 299 kts 18°
2026-04-29 13:15 56.68832 17.74542 19037 ft 299 kts 18°
2026-04-29 13:15 56.70815 17.75677 18657 ft 298 kts 18°
2026-04-29 13:16 56.72792 17.76812 18259 ft 298 kts 18°
2026-04-29 13:16 56.74764 17.77947 17899 ft 297 kts 18°
2026-04-29 13:16 56.76730 17.79074 17529 ft 296 kts 18°
2026-04-29 13:16 56.78690 17.80202 17162 ft 295 kts 18°
2026-04-29 13:17 56.80641 17.81331 16791 ft 294 kts 18°
2026-04-29 13:17 56.82585 17.82458 16428 ft 293 kts 18°
2026-04-29 13:17 56.84524 17.83579 16065 ft 292 kts 18°
2026-04-29 13:17 56.86456 17.84696 15700 ft 291 kts 18°
2026-04-29 13:18 56.88381 17.85810 15339 ft 290 kts 18°
2026-04-29 13:18 56.90299 17.86920 14977 ft 289 kts 18°
2026-04-29 13:18 56.92214 17.88030 14616 ft 288 kts 17°
2026-04-29 13:18 56.94124 17.89139 14243 ft 288 kts 17°
2026-04-29 13:19 56.96033 17.90251 13842 ft 287 kts 17°
2026-04-29 13:19 56.97934 17.91356 13470 ft 286 kts 17°
2026-04-29 13:19 56.99830 17.92460 13102 ft 285 kts 17°
2026-04-29 13:19 57.01715 17.93559 12725 ft 284 kts 17°
2026-04-29 13:20 57.03593 17.94654 12352 ft 282 kts 17°
2026-04-29 13:20 57.05462 17.95742 11979 ft 281 kts 17°
2026-04-29 13:20 57.07319 17.96827 11604 ft 280 kts 18°
2026-04-29 13:20 57.09172 17.97911 11226 ft 279 kts 18°
2026-04-29 13:21 57.11007 17.98988 10943 ft 273 kts 18°
2026-04-29 13:21 57.12778 18.00029 10765 ft 263 kts 18°
2026-04-29 13:21 57.14506 18.01047 10460 ft 259 kts 18°
2026-04-29 13:21 57.16203 18.02047 10255 ft 256 kts 18°
2026-04-29 13:22 57.17904 18.03049 10124 ft 257 kts 17°
2026-04-29 13:22 57.19607 18.04052 10001 ft 257 kts 17°
2026-04-29 13:22 57.21315 18.05057 9624 ft 258 kts 17°
2026-04-29 13:22 57.23017 18.06061 9236 ft 256 kts 17°
2026-04-29 13:23 57.24707 18.07058 8884 ft 254 kts 17°
2026-04-29 13:23 57.26391 18.08049 8524 ft 253 kts 17°
2026-04-29 13:23 57.28044 18.09025 8172 ft 253 kts 17°
2026-04-29 13:23 57.29715 18.10018 7818 ft 252 kts 17°
2026-04-29 13:24 57.31384 18.11010 7464 ft 251 kts 17°
2026-04-29 13:24 57.33037 18.11992 7106 ft 247 kts 16°
2026-04-29 13:24 57.34644 18.12948 6757 ft 238 kts 16°
2026-04-29 13:24 57.36187 18.13872 6409 ft 229 kts 16°
2026-04-29 13:25 57.37673 18.14761 6093 ft 220 kts 16°
2026-04-29 13:25 57.40555 18.16478 5490 ft 214 kts 15°
2026-04-29 13:25 57.41941 18.17306 5191 ft 207 kts 15°
2026-04-29 13:26 57.43290 18.18179 4877 ft 202 kts 18°
2026-04-29 13:26 57.44589 18.19099 4591 ft 199 kts 19°
2026-04-29 13:26 57.45875 18.20028 4323 ft 198 kts 19°
2026-04-29 13:26 57.47157 18.20953 4037 ft 197 kts 19°
2026-04-29 13:27 57.48434 18.21873 3764 ft 197 kts 19°
2026-04-29 13:27 57.49711 18.22787 3480 ft 197 kts 19°
2026-04-29 13:27 57.50992 18.23695 3200 ft 198 kts 19°
2026-04-29 13:27 57.52277 18.24606 2933 ft 197 kts 20°
2026-04-29 13:28 57.53536 18.25503 2653 ft 190 kts 20°
2026-04-29 13:28 57.54736 18.26361 2374 ft 179 kts 20°
2026-04-29 13:28 57.55862 18.27163 2126 ft 168 kts 20°
2026-04-29 13:28 57.56919 18.27913 1921 ft 160 kts 20°
2026-04-29 13:29 57.57941 18.28639 1710 ft 152 kts 21°
2026-04-29 13:29 57.58913 18.29333 1495 ft 148 kts 21°
2026-04-29 13:29 57.59875 18.30027 1287 ft 148 kts 21°
2026-04-29 13:29 57.60834 18.30737 1125 ft 149 kts 22°
2026-04-29 13:30 57.61793 18.31454 956 ft 148 kts 22°
2026-04-29 13:30 57.62758 18.32154 764 ft 148 kts 19°
2026-04-29 13:30 57.63725 18.32797 578 ft 146 kts 19°
2026-04-29 13:30 57.64670 18.33469 362 ft 144 kts 20°
2026-04-29 13:31 57.65596 18.34133 196 ft 142 kts 19°
2026-04-29 13:31 57.66456 18.34730 161 ft 128 kts 19°
2026-04-29 13:31 57.67402 18.35366 672 ft 153 kts 19°
2026-04-29 13:31 57.68500 18.36101 1332 ft 185 kts 20°
2026-04-29 13:32 57.69786 18.36831 2178 ft 196 kts
2026-04-29 13:32 57.71192 18.36748 2579 ft 209 kts 352°
2026-04-29 13:32 57.72645 18.36338 2953 ft 213 kts 349°
2026-04-29 13:32 57.74054 18.35731 3004 ft 203 kts 343°
2026-04-29 13:33 57.75399 18.34999 3010 ft 200 kts 342°
2026-04-29 13:33 57.76723 18.34261 3010 ft 198 kts 342°
2026-04-29 13:33 57.78043 18.33524 3006 ft 197 kts 342°
2026-04-29 13:33 57.79345 18.32927 2735 ft 196 kts 352°
2026-04-29 13:34 57.80731 18.32763 2375 ft 198 kts 357°
2026-04-29 13:34 57.82094 18.32694 2215 ft 199 kts 358°
2026-04-29 13:34 57.83489 18.32712 2201 ft 202 kts
2026-04-29 13:34 57.84720 18.33908 2202 ft 204 kts 46°
2026-04-29 13:35 57.85332 18.36277 2210 ft 205 kts 80°
2026-04-29 13:35 57.85472 18.38946 2210 ft 205 kts 87°
2026-04-29 13:35 57.85319 18.41597 2209 ft 205 kts 105°
2026-04-29 13:35 57.84767 18.44046 2200 ft 205 kts 128°
2026-04-29 13:36 57.83665 18.45671 2208 ft 203 kts 159°
2026-04-29 13:36 57.82317 18.46021 2218 ft 194 kts 188°
2026-04-29 13:36 57.81046 18.45257 2219 ft 191 kts 202°
2026-04-29 13:36 57.79807 18.44355 2209 ft 191 kts 202°
2026-04-29 13:37 57.78571 18.43459 2209 ft 190 kts 202°
2026-04-29 13:37 57.77352 18.42580 2202 ft 184 kts 202°
2026-04-29 13:37 57.76164 18.41723 2115 ft 182 kts 202°
2026-04-29 13:37 57.74993 18.40880 1906 ft 179 kts 202°
2026-04-29 13:38 57.73867 18.40069 1696 ft 166 kts 202°
2026-04-29 13:38 57.72821 18.39318 1457 ft 157 kts 201°
2026-04-29 13:38 57.71848 18.38618 1249 ft 144 kts 201°
2026-04-29 13:38 57.70930 18.37962 1019 ft 139 kts 201°
2026-04-29 13:39 57.70033 18.37302 816 ft 139 kts 202°
2026-04-29 13:39 57.69132 18.36650 629 ft 139 kts 202°
2026-04-29 13:39 57.68226 18.35983 426 ft 141 kts 203°
2026-04-29 13:39 57.67303 18.35347 254 ft 142 kts 203°
2026-04-29 13:40 57.66406 18.34700 158 ft 128 kts 198°
2026-04-29 13:40 57.65810 18.34287 157 ft 51 kts 200°
2026-04-29 13:40 57.65583 18.34147 159 ft 13 kts 195°
2026-04-29 13:40 57.65548 18.34101 164 ft 1 kts 294°
2026-04-29 13:41 57.65563 18.34111 164 ft 6 kts 21°
2026-04-29 13:41 57.65612 18.34142 159 ft 8 kts 20°
2026-04-29 13:41 57.65667 18.34181 159 ft 9 kts 21°
2026-04-29 13:41 57.65735 18.34230 159 ft 15 kts 21°
2026-04-29 13:42 57.65866 18.34325 156 ft 15 kts 21°
2026-04-29 13:42 57.65954 18.34339 157 ft 12 kts 321°
2026-04-29 13:42 57.65988 18.34212 159 ft 9 kts 292°
2026-04-29 13:42 57.66009 18.34103 159 ft 9 kts 290°
2026-04-29 13:43 57.66018 18.34040 159 ft 3 kts 269°
2026-04-29 13:43 57.66014 18.34006 159 ft 2 kts 264°
2026-04-29 13:43 57.66019 18.33990 159 ft 0 kts 307°
2026-04-29 13:43 57.66023 18.33985 159 ft 3 kts 322°
2026-04-29 13:44 57.66039 18.33969 159 ft 2 kts 333°
2026-04-29 13:44 57.66052 18.33957 159 ft 2 kts 335°
2026-04-29 13:44 57.66057 18.33953 159 ft 0 kts 335°